Zurück zum Katalog

COSMOS 2380

GLONASS

AktivNavigationMEO
NORAD 26989·PAYLOAD·🇷🇺 Russia

Gestartet Dec 1, 2001 von Baikonur Cosmodrome

Loading…

Nächste Überflüge (nächste 24 Stunden)

TLE

AktuellSource: Space-Track

Epoche: Sep 11, 2026, 15:43 UTC

1 26989U 01053C   26254.65528182 -.00000028  00000-0  00000-0 0  9990
2 26989  64.1443  54.3634 0006135  54.3005 123.4339  2.13102693192852

Verfolge COSMOS 2380 in Echtzeit mit AllMySat

Download on the App Store